GW2898 Weather Reports


Display with metric or nautical units.
time (UTC)temp
F
wind
direction
speed
MPH
gust
MPH
rain 1hr
in
rain 24hr
in
rain mn
in
humidity
%
barometer
mb
20260505092441 66 154 2.0 7.0 0.00 0.00 0.00 59 1014.4
20260505091938 66 142 4.0 8.0 0.00 0.00 0.00 58 1014.6
20260505091436 66 161 5.0 8.0 0.00 0.00 0.00 58 1014.8
20260505090933 66 151 3.0 7.0 0.00 0.00 0.00 57 1014.6
20260505090432 66 163 2.0 4.0 0.00 0.00 0.00 58 1014.7
20260505085928 66 209 0.0 10.0 0.00 0.00 0.00 58 1014.6
20260505085426 66 164 2.0 7.0 0.00 0.00 0.00 57 1014.7
20260505084925 67 127 5.0 7.0 0.00 0.00 0.00 56 1014.8
20260505084422 67 149 1.0 6.0 0.00 0.00 0.00 56 1014.8
20260505083920 67 199 3.0 15.0 0.00 0.00 0.00 56 1015.1
20260505083417 67 205 2.0 6.0 0.00 0.00 0.00 56 1015.1
20260505082913 67 156 4.0 15.0 0.00 0.00 0.00 55 1015.1
20260505082409 68 160 3.0 7.0 0.00 0.00 0.00 54 1015.3
20260505081906 68 191 4.0 11.0 0.00 0.00 0.00 52 1015.5
20260505081403 68 164 3.0 10.0 0.00 0.00 0.00 51 1015.4
20260505080900 68 155 4.0 11.0 0.00 0.00 0.00 51 1015.1
20260505080355 68 180 2.0 11.0 0.00 0.00 0.00 50 1015.2
20260505075851 68 139 4.0 7.0 0.00 0.00 0.00 49 1015.3
20260505075348 68 173 2.0 10.0 0.00 0.00 0.00 48 1015.0
20260505074846 68 158 3.0 10.0 0.00 0.00 0.00 48 1015.4
20260505074343 68 171 3.0 10.0 0.00 0.00 0.00 47 1015.2
20260505073840 68 200 0.0 4.0 0.00 0.00 0.00 47 1015.1
20260505073338 68 204 3.0 8.0 0.00 0.00 0.00 47 1014.9
20260505072834 68 178 3.0 7.0 0.00 0.00 0.00 47 1014.8
20260505072331 69 129 1.0 5.0 0.00 0.00 0.00 47 1015.0
20260505071827 69 230 3.0 10.0 0.00 0.00 0.00 46 1014.8
20260505071323 69 176 2.0 7.0 0.00 0.00 0.00 46 1015.2
20260505070821 69 143 3.0 8.0 0.00 0.00 0.00 45 1015.2
20260505070318 69 115 2.0 7.0 0.00 0.00 0.00 44 1015.0
20260505065813 69 168 3.0 10.0 0.00 0.00 0.00 43 1015.2
20260505065310 69 206 2.0 4.0 0.00 0.00 0.00 43 1015.4
20260505064807 69 200 3.0 12.0 0.00 0.00 0.00 42 1014.9
20260505064304 69 226 3.0 8.0 0.00 0.00 0.00 41 1015.2
20260505063803 70 146 3.0 9.0 0.00 0.00 0.00 40 1015.1
20260505063258 70 146 2.0 9.0 0.00 0.00 0.00 39 1015.1
20260505062755 70 141 5.0 9.0 0.00 0.00 0.00 38 1015.1
20260505062252 70 167 4.0 10.0 0.00 0.00 0.00 38 1014.7
20260505061749 70 153 5.0 8.0 0.00 0.00 0.00 37 1014.9
20260505061247 70 188 2.0 10.0 0.00 0.00 0.00 38 1014.5
20260505060744 70 143 2.0 9.0 0.00 0.00 0.00 36 1014.5
20260505060241 71 141 4.0 9.0 0.00 0.00 0.00 35 1014.6
20260505055736 71 217 1.0 6.0 0.00 0.00 0.00 35 1014.6
20260505055232 71 148 3.0 7.0 0.00 0.00 0.00 35 1014.6
20260505054730 71 139 5.0 7.0 0.00 0.00 0.00 35 1014.4
20260505054227 71 133 3.0 7.0 0.00 0.00 0.00 36 1014.6
20260505053725 71 135 1.0 5.0 0.00 0.00 0.00 36 1014.6
20260505053221 72 152 2.0 4.0 0.00 0.00 0.00 38 1014.7
20260505052719 72 195 2.0 7.0 0.00 0.00 0.00 37 1014.9
20260505052215 72 126 2.0 4.0 0.00 0.00 0.00 37 1015.1
20260505051713 72 193 1.0 5.0 0.00 0.00 0.00 37 1015.1
20260505051211 72 180 1.0 3.0 0.00 0.00 0.00 37 1015.0
20260505050709 72 169 2.0 4.0 0.00 0.00 0.00 38 1015.3
20260505050208 72 129 0.0 3.0 0.00 0.00 0.00 39 1014.9
20260505041642 73 157 0.0 3.0 0.00 0.00 0.00 44 1015.0
20260505041140 74 248 2.0 4.0 0.00 0.00 0.00 42 1014.7
20260505040636 74 203 3.0 8.0 0.00 0.00 0.00 42 1014.9
20260505040134 74 180 0.0 5.0 0.00 0.00 0.00 43 1015.0
20260505035630 74 223 2.0 3.0 0.00 0.00 0.00 43 1014.8
20260505035126 74 204 2.0 5.0 0.00 0.00 0.00 42 1014.8
20260505034623 74 146 2.0 2.0 0.00 0.00 0.00 43 1014.6
20260505034120 73 222 0.0 3.0 0.00 0.00 0.00 42 1014.5
20260505033616 73 142 0.0 1.0 0.00 0.00 0.00 43 1014.4
20260505033115 74 117 0.0 2.0 0.00 0.00 0.00 42 1014.4
20260505032612 74 216 1.0 3.0 0.00 0.00 0.00 42 1014.5
20260505032109 74 158 0.0 2.0 0.00 0.00 0.00 43 1014.4
20260505031606 74 229 2.0 3.0 0.00 0.00 0.00 41 1014.1
20260505031102 74 247 3.0 3.0 0.00 0.00 0.00 41 1013.8
20260505030559 74 169 0.0 2.0 0.00 0.00 0.00 41 1014.1
20260505030055 74 210 0.0 3.0 0.00 0.00 0.00 41 1013.7
20260505025551 75 216 2.0 5.0 0.00 0.00 0.00 40 1014.0
20260505025050 74 194 1.0 4.0 0.00 0.00 0.00 41 1013.7
20260505024547 75 274 2.0 4.0 0.00 0.00 0.00 40 1014.1
20260505024044 74 5 0.0 3.0 0.00 0.00 0.00 41 1014.0
20260505023541 74 339 0.0 3.0 0.00 0.00 0.00 42 1013.9
20260505023039 74 332 1.0 2.0 0.00 0.00 0.00 41 1013.9
20260505022536 74 226 0.0 2.0 0.00 0.00 0.00 41 1013.8
20260505022033 75 218 2.0 3.0 0.00 0.00 0.00 41 1014.0
20260505021529 75 303 1.0 5.0 0.00 0.00 0.00 41 1013.9
20260505021026 75 304 0.0 3.0 0.00 0.00 0.00 40 1013.8
20260505020520 75 198 0.0 3.0 0.00 0.00 0.00 39 1013.8
20260505020018 75 309 3.0 6.0 0.00 0.00 0.00 38 1014.0
20260505015515 76 323 0.0 2.0 0.00 0.00 0.00 39 1013.7
20260505015011 75 232 1.0 3.0 0.00 0.00 0.00 39 1013.8
20260505014508 76 336 0.0 2.0 0.00 0.00 0.00 38 1013.7
20260505014006 76 119 0.0 2.0 0.00 0.00 0.00 37 1013.4
20260505013502 77 242 0.0 3.0 0.00 0.00 0.00 35 1013.5
20260505013000 77 229 0.0 2.0 0.00 0.00 0.00 35 1013.5
20260505012458 77 230 0.0 2.0 0.00 0.00 0.00 34 1013.5
20260505011954 77 236 2.0 4.0 0.00 0.00 0.00 34 1013.3
20260505011450 77 239 2.0 6.0 0.00 0.00 0.00 34 1013.4
20260505010947 77 258 2.0 5.0 0.00 0.00 0.00 34 1013.3
20260505010443 77 251 3.0 6.0 0.00 0.00 0.00 34 1013.6
20260505005939 77 217 0.0 2.0 0.00 0.00 0.00 35 1013.2
20260505005436 77 154 0.0 3.0 0.00 0.00 0.00 35 1013.4
20260505004934 78 339 0.0 2.0 0.00 0.00 0.00 34 1013.5
20260505004430 78 223 1.0 4.0 0.00 0.00 0.00 34 1013.5
20260505003927 78 130 0.0 3.0 0.00 0.00 0.00 36 1013.6
20260505003424 78 204 2.0 4.0 0.00 0.00 0.00 33 1013.4
20260505002920 78 347 0.0 3.0 0.00 0.00 0.00 36 1013.6
20260505002417 78 320 1.0 3.0 0.00 0.00 0.00 36 1013.4
20260505001915 78 300 2.0 6.0 0.00 0.00 0.00 35 1013.3
20260505001413 78 252 3.0 5.0 0.00 0.00 0.00 36 1013.7
20260505000910 78 203 2.0 3.0 0.00 0.00 0.00 36 1013.7
20260505000408 78 202 0.0 5.0 0.00 0.00 0.00 34 1013.5
20260504235904 78 242 0.0 2.0 0.00 0.00 0.00 40 1013.6
20260504235401 77 116 2.0 3.0 0.00 0.00 0.00 36 1013.9
20260504234857 77 255 3.0 6.0 0.00 0.00 0.00 35 1013.9
20260504234355 77 305 0.0 7.0 0.00 0.00 0.00 36 1013.9
20260504233851 77 244 3.0 5.0 0.00 0.00 0.00 38 1013.8
20260504233347 78 269 0.0 3.0 0.00 0.00 0.00 37 1014.1
20260504232844 78 288 0.0 3.0 0.00 0.00 0.00 38 1013.9
20260504232341 77 194 2.0 4.0 0.00 0.00 0.00 39 1013.9
20260504231838 77 89 0.0 3.0 0.00 0.00 0.00 37 1014.0
20260504231334 77 316 4.0 5.0 0.00 0.00 0.00 37 1013.7
20260504230830 78 237 1.0 3.0 0.00 0.00 0.00 37 1013.9
20260504230329 78 67 2.0 4.0 0.00 0.00 0.00 36 1013.8
20260504225827 78 285 0.0 2.0 0.00 0.00 0.00 38 1013.7
20260504225323 78 257 1.0 3.0 0.00 0.00 0.00 39 1013.8
20260504224821 77 40 1.0 5.0 0.00 0.00 0.00 39 1013.7
20260504224317 77 313 5.0 5.0 0.00 0.00 0.00 40 1013.8
20260504223814 77 9 2.0 4.0 0.00 0.00 0.00 40 1014.0
20260504223309 77 309 3.0 6.0 0.00 0.00 0.00 40 1013.8
20260504222807 77 350 5.0 5.0 0.00 0.00 0.00 40 1014.2
20260504222304 76 334 8.0 8.0 0.00 0.00 0.00 41 1014.2
20260504221801 76 274 4.0 6.0 0.00 0.00 0.00 41 1014.3
20260504221258 75 344 5.0 10.0 0.00 0.00 0.00 40 1014.5
20260504220755 76 329 4.0 12.0 0.00 0.00 0.00 41 1014.3
20260504220252 76 322 5.0 10.0 0.00 0.00 0.00 42 1014.4
20260504215749 75 329 5.0 10.0 0.00 0.00 0.00 42 1014.7
20260504215245 76 337 3.0 13.0 0.00 0.00 0.00 41 1014.6
20260504214741 77 335 5.0 8.0 0.00 0.00 0.00 40 1014.4
20260504214238 76 345 3.0 8.0 0.00 0.00 0.00 41 1014.5
20260504213735 77 0 3.0 5.0 0.00 0.00 0.00 39 1014.5
20260504213231 76 0 3.0 5.0 0.00 0.00 0.00 40 1014.9
20260504212728 76 336 2.0 3.0 0.00 0.00 0.00 41 1015.0
20260504212225 76 346 3.0 7.0 0.00 0.00 0.00 41 1015.0
20260504211722 75 327 3.0 11.0 0.00 0.00 0.00 41 1015.1
20260504211218 76 323 4.0 8.0 0.00 0.00 0.00 41 1015.3
20260504210716 76 343 3.0 7.0 0.00 0.00 0.00 40 1015.4
20260504210213 77 252 5.0 7.0 0.00 0.00 0.00 37 1015.4
20260504205710 77 350 3.0 5.0 0.00 0.00 0.00 40 1015.5
20260504205207 77 289 2.0 7.0 0.00 0.00 0.00 38 1015.2
20260504204706 77 283 0.0 10.0 0.00 0.00 0.00 37 1015.1
20260504204204 77 241 4.0 9.0 0.00 0.00 0.00 37 1015.4
20260504203702 78 280 5.0 8.0 0.00 0.00 0.00 36 1015.5
20260504203200 77 197 2.0 9.0 0.00 0.00 0.00 38 1015.5
20260504202654 77 252 5.0 11.0 0.00 0.00 0.00 36 1015.3
20260504202151 77 230 5.0 13.0 0.00 0.00 0.00 37 1015.4
20260504201648 78 275 2.0 4.0 0.00 0.00 0.00 37 1015.2
20260504201146 77 205 0.0 6.0 0.00 0.00 0.00 41 1015.3
20260504200643 77 235 4.0 10.0 0.00 0.00 0.00 40 1015.4
20260504200139 77 254 2.0 6.0 0.00 0.00 0.00 42 1015.3
20260504195635 77 28 2.0 3.0 0.00 0.00 0.00 40 1015.2
20260504195132 76 261 0.0 9.0 0.00 0.00 0.00 42 1015.3
20260504194629 76 318 1.0 3.0 0.00 0.00 0.00 41 1015.2
20260504194125 76 337 2.0 6.0 0.00 0.00 0.00 43 1015.1
20260504193621 76 11 4.0 7.0 0.00 0.00 0.00 42 1015.3
20260504193120 76 349 2.0 4.0 0.00 0.00 0.00 42 1015.5
20260504192617 76 314 10.0 10.0 0.00 0.00 0.00 42 1015.7
20260504192115 76 21 3.0 7.0 0.00 0.00 0.00 44 1015.6
20260504191613 76 328 4.0 9.0 0.00 0.00 0.00 43 1015.5
20260504191109 77 252 3.0 9.0 0.00 0.00 0.00 42 1015.6
20260504190605 77 347 4.0 7.0 0.00 0.00 0.00 42 1015.5
20260504185559 76 233 3.0 6.0 0.00 0.00 0.00 40 1015.5
20260504185055 76 5 3.0 7.0 0.00 0.00 0.00 42 1015.3
20260504184551 76 78 2.0 7.0 0.00 0.00 0.00 41 1015.2
20260504184046 77 15 3.0 5.0 0.00 0.00 0.00 41 1015.2
20260504183543 75 298 2.0 7.0 0.00 0.00 0.00 44 1015.2
20260504183042 75 9 3.0 7.0 0.00 0.00 0.00 44 1015.3
20260504182538 75 342 5.0 9.0 0.00 0.00 0.00 44 1015.4
20260504182036 75 351 4.0 8.0 0.00 0.00 0.00 44 1016.0
20260504181532 76 257 4.0 8.0 0.00 0.00 0.00 36 1016.1
20260504181031 76 238 1.0 5.0 0.00 0.00 0.00 35 1016.0
20260504180529 76 239 5.0 8.0 0.00 0.00 0.00 34 1016.1
20260504180028 75 291 3.0 10.0 0.00 0.00 0.00 38 1015.7
20260504175525 75 226 2.0 5.0 0.00 0.00 0.00 45 1015.7
20260504175022 74 269 0.0 3.0 0.00 0.00 0.00 44 1015.3
20260504174520 74 242 0.0 3.0 0.00 0.00 0.00 44 1015.0
20260504174016 75 85 3.0 5.0 0.00 0.00 0.00 43 1015.0
20260504173513 74 236 0.0 6.0 0.00 0.00 0.00 45 1015.4
20260504173011 74 267 0.0 2.0 0.00 0.00 0.00 45 1015.2
20260504172507 74 283 1.0 5.0 0.00 0.00 0.00 46 1015.2
20260504172003 74 342 3.0 4.0 0.00 0.00 0.00 46 1015.2
20260504171500 74 0 2.0 5.0 0.00 0.00 0.00 46 1015.2
20260504170957 74 172 1.0 2.0 0.00 0.00 0.00 44 1015.6
20260504170453 74 235 4.0 6.0 0.00 0.00 0.00 44 1015.5
20260504160413 74 186 4.0 10.0 0.00 0.00 0.00 35 1015.5
20260504150837 73 218 4.0 10.0 0.00 0.00 0.00 42 1015.1
20260504150333 73 232 1.0 9.0 0.00 0.00 0.00 42 1015.1
20260504141303 71 173 0.0 4.0 0.00 0.00 0.00 44 1014.6
20260504140800 71 286 0.0 2.0 0.00 0.00 0.00 45 1014.3
20260504140255 71 147 0.0 2.0 0.00 0.00 0.00 46 1014.4
20260504130725 70 148 2.0 4.0 0.00 0.00 0.00 47 1014.4
20260504130220 70 135 0.0 3.0 0.00 0.00 0.00 47 1014.2
20260504120144 70 135 0.0 2.0 0.00 0.00 0.00 47 1013.5
20260504110612 71 100 2.0 2.0 0.00 0.00 0.00 44 1013.5
20260504110108 71 166 0.0 2.0 0.00 0.00 0.00 45 1013.6
20260504100533 73 19 0.0 1.0 0.00 0.00 0.00 42 1013.4